Weather History for Francistown, Botswana

Change the Weather History Date:

Thursday, January 31, 2013

  Actual Average Record
Temperature  
Mean Temperature 76 °F -  
Max Temperature 91 °F 84 °F 98 °F (2001)
Min Temperature 62 °F 65 °F 60 °F (2011)
Cooling Degree Days 12    
Growing Degree Days 26 (Base 50)    
Moisture  
Dew Point 60 °F    
Average Humidity 56    
Maximum Humidity 88    
Minimum Humidity 25    
Precipitation  
Precipitation 0.00 in - - ()
Sea Level Pressure  
Sea Level Pressure 29.97 in    
Wind  
Wind Speed 4 mph ()    
Max Wind Speed 14 mph    
Max Gust Speed -    
Visibility 6.1 miles    
Events      
Averages and records for this station are not official NWS values.
T = Trace of Precipitation, MM = Missing Value Source: Averaged Metar Reports

Daily Weather History Graph

Daily Weather History Graph

Search for Another Location

Airport:

Trip Planner

Search our weather history database for the weather conditions in past years. The results will help you decide how hot, cold, wet, or windy it might be!

Date:

Astronomy

Jan. 31, 2013 Rise Set
Actual Time 5:51 AM CAT 6:54 PM CAT
Civil Twilight 5:28 AM CAT 7:18 PM CAT
Nautical Twilight 5:00 AM CAT 7:46 PM CAT
Astronomical Twilight 4:31 AM CAT 8:14 PM CAT
Moon 9:37 PM CAT (1/31) 9:28 AM CAT (1/31)
Length of Visible Light 13h 50m
Length of Day
13h 02m
Waning Gibbous, 82% of the Moon is Illuminated
Jan 31
Waning Gibbous
Feb 3
Last Quarter
Feb 10
New
Feb 17
First Quarter
Feb 25
Full

Hourly Weather History & Observations

Time (CAT) Temp. Heat Index Dew Point Humidity Pressure Visibility Wind Dir Wind Speed Gust Speed Precip Events Conditions
12:00 AM 69.8 °F - 62.6 °F 78% 30.01 in - SSE 3.5 mph - N/A   Clear
1:00 AM 68.0 °F - 64.4 °F 88% 29.98 in - Variable 2.3 mph - N/A   Clear
2:00 AM 68.0 °F - 62.6 °F 83% 29.98 in - Variable 2.3 mph - N/A   Clear
3:00 AM 66.2 °F - 60.8 °F 83% 29.98 in - Variable 2.3 mph - N/A   Clear
4:00 AM 64.4 °F - 59.0 °F 83% 29.98 in - Variable 1.2 mph - N/A   Clear
5:00 AM 64.4 °F - 59.0 °F 83% 29.98 in - Variable 2.3 mph - N/A   Clear
6:00 AM 62.6 °F - 59.0 °F 88% 29.98 in - Variable 2.3 mph - N/A   Clear
7:00 AM 66.2 °F - 60.8 °F 83% 29.98 in - NNE 5.8 mph - N/A   Clear
8:00 AM 73 °F - 62 °F 60%  in 6 mi NE 5.8 mph - -  
8:00 AM 73.4 °F - 62.6 °F 69% 30.01 in - NE 5.8 mph - N/A   Clear
9:00 AM 78.8 °F - 50.0 °F 36% 30.01 in - East 5.8 mph - N/A   Clear
10:00 AM 82.4 °F 82.9 °F 60.8 °F 48% 30.01 in - ENE 6.9 mph - N/A   Clear
11:00 AM 86.0 °F 86.1 °F 60.8 °F 43% 30.01 in - SE 13.8 mph - N/A   Clear
12:00 PM 87.8 °F 87.6 °F 60.8 °F 40% 29.98 in - East 10.4 mph - N/A   Clear
1:00 PM 87.8 °F 87.1 °F 59.0 °F 38% 29.95 in - East 5.8 mph - N/A   Clear
2:00 PM 90 °F - 59 °F 25%  in 6 mi ESE 5.8 mph - -   Scattered Clouds
2:00 PM 89.6 °F 88.1 °F 57.2 °F 33% 29.95 in 6.2 mi ESE 5.8 mph - N/A   Partly Cloudy
3:00 PM 89.6 °F 88.1 °F 57.2 °F 33% 29.92 in 6.2 mi SSE 3.5 mph - N/A   Partly Cloudy
4:00 PM 91.4 °F 89.4 °F 55.4 °F 29% 29.92 in 6.2 mi East 12.7 mph - N/A   Partly Cloudy
5:00 PM 89.6 °F 88.1 °F 57.2 °F 33% 29.92 in 6.2 mi SSE 6.9 mph - N/A   Scattered Clouds
6:00 PM 87.8 °F 87.1 °F 59.0 °F 38% 29.92 in 6.2 mi SE 6.9 mph - N/A   Partly Cloudy
7:00 PM 86.0 °F 85.4 °F 59.0 °F 40% 29.92 in 6.2 mi SE 6.9 mph - N/A   Partly Cloudy
8:00 PM 82.4 °F 83.4 °F 62.6 °F 51% 29.95 in - SE 5.8 mph - N/A   Clear